When you browse on this site, cookies collect data to enhance your experience and personalize the content and advertising you see.
Visit our Privacy Policy to learn more. By continuing to use the site, you agree to this use of cookies and data.
  • In France
  • List of Countries
  • For 7 days
  • Water Temperature
  • Weather Map
  • Weather Widgets
  • user-avatar
    Login

    Hourly Weather Agcabadi

    Today, 21 September, Saturday

    Time Temperature Precipitation Wind Pressure Humidity
    00:00 +23°C° 0 mm 1 mps 755 mmHg 81%
    01:00 +22°C° 0 mm 1 mps 755 mmHg 83%
    02:00 +22°C° 0 mm 1 mps 754 mmHg 85%
    03:00 +22°C° 0 mm 1 mps 754 mmHg 87%
    04:00 +21°C° 0 mm 1 mps 754 mmHg 85%
    05:00 +20°C° 0 mm 2 mps 754 mmHg 83%
    06:00 +20°C° 0 mm 3 mps 754 mmHg 81%
    07:00 +23°C° 0 mm 4 mps 754 mmHg 69%
    08:00 +27°C° 0 mm 4 mps 754 mmHg 57%
    09:00 +29°C° 0 mm 5 mps 754 mmHg 44%
    10:00 +32°C° 0 mm 5 mps 753 mmHg 40%
    11:00 +33°C° 0 mm 5 mps 753 mmHg 35%
    12:00 +35°C° 0 mm 5 mps 753 mmHg 30%
    13:00 +35°C° 0 mm 5 mps 752 mmHg 29%
    14:00 +35°C° 0 mm 4 mps 752 mmHg 28%
    15:00 +35°C° 0 mm 4 mps 751 mmHg 27%
    16:00 +33°C° 0 mm 4 mps 752 mmHg 32%
    17:00 +29°C° 0 mm 5 mps 753 mmHg 38%
    18:00 +26°C° 0 mm 6 mps 754 mmHg 43%
    19:00 +24°C° 0 mm 6 mps 755 mmHg 42%
    20:00 +23°C° 0 mm 7 mps 756 mmHg 41%
    21:00 +22°C° 0 mm 7 mps 757 mmHg 40%
    22:00 +22°C° 0 mm 7 mps 757 mmHg 40%
    23:00 +21°C° 0 mm 7 mps 758 mmHg 40%

    Tomorrow, 22 September, Sunday

    Time Temperature Precipitation Wind Pressure Humidity
    00:00 +21°C° 0 mm 8 mps 759 mmHg 39%
    01:00 +21°C° 0 mm 8 mps 759 mmHg 38%
    02:00 +20°C° 0 mm 8 mps 760 mmHg 37%
    03:00 +19°C° 0 mm 9 mps 761 mmHg 36%
    04:00 +18°C° 0 mm 8 mps 762 mmHg 37%
    05:00 +18°C° 0 mm 8 mps 763 mmHg 38%
    06:00 +18°C° 0 mm 8 mps 763 mmHg 40%
    07:00 +18°C° 0 mm 7 mps 764 mmHg 39%
    08:00 +19°C° 0 mm 6 mps 765 mmHg 38%
    09:00 +19°C° 0 mm 6 mps 766 mmHg 37%
    10:00 +21°C° 0 mm 5 mps 766 mmHg 34%
    11:00 +22°C° 0 mm 4 mps 766 mmHg 32%
    12:00 +24°C° 0 mm 3 mps 766 mmHg 29%
    13:00 +25°C° 0 mm 3 mps 765 mmHg 28%
    14:00 +25°C° 0 mm 2 mps 765 mmHg 26%
    15:00 +26°C° 0 mm 2 mps 764 mmHg 25%
    16:00 +25°C° 0 mm 2 mps 764 mmHg 28%
    17:00 +23°C° 0 mm 2 mps 764 mmHg 31%
    18:00 +21°C° 0 mm 2 mps 764 mmHg 33%
    19:00 +20°C° 0 mm 3 mps 764 mmHg 44%
    20:00 +19°C° 0 mm 3 mps 764 mmHg 55%
    21:00 +18°C° 0 mm 4 mps 765 mmHg 66%
    22:00 +17°C° 0 mm 3 mps 765 mmHg 69%
    23:00 +17°C° 0 mm 2 mps 764 mmHg 72%

    Day after tomorrow, 23 September, Monday

    Time Temperature Precipitation Wind Pressure Humidity
    00:00 +16°C° 0 mm 2 mps 764 mmHg 76%
    01:00 +16°C° 0 mm 2 mps 764 mmHg 77%
    02:00 +15°C° 0 mm 1 mps 764 mmHg 79%
    03:00 +15°C° 0 mm 1 mps 764 mmHg 80%
    04:00 +15°C° 0 mm 1 mps 763 mmHg 80%
    05:00 +14°C° 0 mm 1 mps 763 mmHg 81%
    06:00 +14°C° 0 mm 1 mps 763 mmHg 81%
    07:00 +16°C° 0 mm 2 mps 763 mmHg 72%
    08:00 +18°C° 0 mm 2 mps 763 mmHg 63%
    09:00 +20°C° 0 mm 3 mps 763 mmHg 54%
    10:00 +23°C° 0 mm 2 mps 762 mmHg 47%
    11:00 +24°C° 0 mm 2 mps 762 mmHg 41%
    12:00 +25°C° 0 mm 2 mps 762 mmHg 34%
    13:00 +26°C° 0 mm 1 mps 761 mmHg 32%
    14:00 +27°C° 0 mm 1 mps 761 mmHg 31%
    15:00 +25°C° 0 mm 0 mps 760 mmHg 29%
    16:00 +26°C° 0 mm 1 mps 760 mmHg 32%
    17:00 +25°C° 0 mm 1 mps 761 mmHg 36%
    18:00 +24°C° 0 mm 1 mps 761 mmHg 39%
    19:00 +23°C° 0 mm 2 mps 762 mmHg 51%
    20:00 +21°C° 0 mm 3 mps 762 mmHg 64%
    21:00 +19°C° 0 mm 4 mps 763 mmHg 77%
    22:00 +19°C° 0 mm 4 mps 763 mmHg 76%
    23:00 +19°C° 0 mm 3 mps 763 mmHg 76%

    24 September, Tuesday

    Time Temperature Precipitation Wind Pressure Humidity
    00:00 +18°C° 0 mm 2 mps 763 mmHg 76%
    01:00 +19°C° 0 mm 2 mps 763 mmHg 75%
    02:00 +19°C° 0 mm 2 mps 763 mmHg 73%
    03:00 +19°C° 0 mm 3 mps 763 mmHg 72%
    04:00 +19°C° 0 mm 2 mps 763 mmHg 71%
    05:00 +19°C° 0 mm 2 mps 763 mmHg 70%
    06:00 +19°C° 0 mm 2 mps 763 mmHg 68%
    07:00 +20°C° 0 mm 2 mps 763 mmHg 65%
    08:00 +20°C° 0 mm 2 mps 764 mmHg 62%
    09:00 +20°C° 0 mm 2 mps 764 mmHg 59%
    10:00 +21°C° 0 mm 2 mps 764 mmHg 56%
    11:00 +23°C° 0 mm 2 mps 763 mmHg 53%
    12:00 +24°C° 0 mm 3 mps 763 mmHg 50%
    13:00 +25°C° 0 mm 2 mps 762 mmHg 48%
    14:00 +26°C° 0 mm 2 mps 762 mmHg 47%
    15:00 +26°C° 0 mm 1 mps 761 mmHg 45%
    16:00 +25°C° 0 mm 1 mps 761 mmHg 49%
    17:00 +25°C° 0 mm 1 mps 761 mmHg 52%
    18:00 +24°C° 0 mm 1 mps 761 mmHg 55%
    19:00 +23°C° 0 mm 1 mps 761 mmHg 59%
    20:00 +22°C° 0 mm 1 mps 761 mmHg 63%
    21:00 +22°C° 0 mm 1 mps 762 mmHg 67%
    22:00 +21°C° 0 mm 1 mps 761 mmHg 71%
    23:00 +21°C° 0 mm 1 mps 761 mmHg 74%

    25 September, Wednesday

    Time Temperature Precipitation Wind Pressure Humidity
    00:00 +20°C° 0 mm 1 mps 761 mmHg 78%
    01:00 +20°C° 0 mm 1 mps 761 mmHg 80%
    02:00 +20°C° 0 mm 1 mps 760 mmHg 82%
    03:00 +19°C° 0 mm 1 mps 760 mmHg 83%
    04:00 +19°C° 0 mm 1 mps 760 mmHg 83%
    05:00 +19°C° 0 mm 1 mps 760 mmHg 82%
    06:00 +19°C° 0 mm 1 mps 760 mmHg 81%
    07:00 +21°C° 0 mm 1 mps 760 mmHg 73%
    08:00 +22°C° 0 mm 1 mps 760 mmHg 65%
    09:00 +24°C° 0 mm 1 mps 760 mmHg 56%
    10:00 +26°C° 0 mm 1 mps 759 mmHg 52%
    11:00 +27°C° 0 mm 1 mps 759 mmHg 47%
    12:00 +28°C° 0 mm 1 mps 758 mmHg 42%
    13:00 +29°C° 0 mm 1 mps 758 mmHg 39%
    14:00 +30°C° 0 mm 1 mps 758 mmHg 36%
    15:00 +31°C° 0 mm 1 mps 757 mmHg 33%
    16:00 +29°C° 0 mm 1 mps 757 mmHg 36%
    17:00 +28°C° 0 mm 1 mps 757 mmHg 39%
    18:00 +27°C° 0 mm 1 mps 757 mmHg 42%
    19:00 +26°C° 0 mm 1 mps 758 mmHg 45%
    20:00 +25°C° 0 mm 1 mps 758 mmHg 48%
    21:00 +25°C° 0 mm 1 mps 758 mmHg 52%
    22:00 +24°C° 0 mm 2 mps 758 mmHg 57%
    23:00 +23°C° 0 mm 2 mps 758 mmHg 63%

    26 September, Thursday

    Time Temperature Precipitation Wind Pressure Humidity
    00:00 +21°C° 0 mm 2 mps 758 mmHg 69%
    01:00 +21°C° 0 mm 2 mps 758 mmHg 75%
    02:00 +21°C° 0 mm 1 mps 758 mmHg 81%
    03:00 +20°C° 0 mm 1 mps 758 mmHg 87%
    04:00 +20°C° 0 mm 1 mps 758 mmHg 87%
    05:00 +18°C° 0 mm 0 mps 758 mmHg 88%
    06:00 +18°C° 0 mm 0 mps 758 mmHg 88%
    07:00 +22°C° 0 mm 1 mps 758 mmHg 80%
    08:00 +23°C° 0 mm 1 mps 758 mmHg 71%
    09:00 +25°C° 0 mm 1 mps 758 mmHg 62%
    10:00 +27°C° 0 mm 1 mps 758 mmHg 55%
    11:00 +29°C° 0 mm 1 mps 757 mmHg 48%
    12:00 +31°C° 0 mm 2 mps 757 mmHg 40%
    13:00 +31°C° 0 mm 1 mps 757 mmHg 38%
    14:00 +32°C° 0 mm 1 mps 756 mmHg 35%
    15:00 +33°C° 0 mm 1 mps 756 mmHg 32%
    16:00 +32°C° 0 mm 1 mps 756 mmHg 35%
    17:00 +30°C° 0 mm 1 mps 756 mmHg 38%
    18:00 +29°C° 0 mm 1 mps 756 mmHg 41%
    19:00 +28°C° 0 mm 2 mps 757 mmHg 50%
    20:00 +26°C° 0 mm 3 mps 757 mmHg 58%
    21:00 +25°C° 0 mm 4 mps 758 mmHg 67%
    22:00 +24°C° 0 mm 3 mps 758 mmHg 71%
    23:00 +24°C° 0 mm 2 mps 758 mmHg 75%
    Show more